2022/12/06 23:31:53+0000,-35.72,-41.90,-32.01,-34.50,-48.72,-53.38
2022/12/06 23:32:45+0000,-35.61,-42.56,-32.26,-33.70,-11.98,-53.57
2022/12/06 23:33:37+0000,-35.41,-42.74,-31.26,-34.45,-47.08,-53.02
2022/12/06 23:34:29+0000,-35.31,-43.12,-31.93,-35.23,-47.48,-53.10
2022/12/06 23:35:21+0000,-35.85,-42.19,-32.05,-35.10,-12.17,-53.24
2022/12/06 23:36:13+0000,-35.06,-42.36,-31.94,-34.40,-12.13,-52.73
2022/12/06 23:37:05+0000,-34.53,-42.94,-32.09,-34.23,-47.56,-53.23
2022/12/06 23:37:57+0000,-35.64,-42.20,-32.47,-34.77,-47.26,-53.57
2022/12/06 23:38:49+0000,-35.48,-42.41,-32.23,-34.75,-12.02,-53.12
2022/12/06 23:39:42+0000,-34.83,-42.04,-31.65,-34.65,-48.88,-53.54
2022/12/06 23:40:34+0000,-35.24,-43.13,-31.90,-34.57,-46.86,-53.28
2022/12/06 23:41:34+0000,-35.09,-42.07,-31.82,-34.20,-47.31,-53.69
2022/12/06 23:42:26+0000,-35.70,-42.27,-32.01,-34.15,-49.02,-53.26
2022/12/06 23:43:18+0000,-34.58,-42.70,-31.92,-34.81,-11.88,-52.96
2022/12/06 23:44:10+0000,-34.87,-42.69,-31.95,-33.96,-48.55,-53.19
2022/12/06 23:45:02+0000,-35.01,-42.84,-31.68,-36.20,-48.24,-53.48
2022/12/06 23:45:54+0000,-35.61,-42.90,-31.86,-34.94,-12.29,-53.15
2022/12/06 23:46:46+0000,-35.14,-43.35,-32.15,-33.91,-11.87,-53.40
2022/12/06 23:47:38+0000,-35.71,-42.53,-32.04,-32.95,-47.66,-53.07
2022/12/06 23:48:30+0000,-34.58,-43.48,-32.52,-33.29,-47.42,-52.57
2022/12/06 23:49:22+0000,-35.60,-43.74,-32.42,-34.06,-12.24,-52.80
2022/12/06 23:50:14+0000,-34.52,-43.57,-32.24,-33.10,-12.21,-52.48
2022/12/06 23:51:14+0000,-35.46,-42.61,-32.10,-33.50,-11.88,-53.04
2022/12/06 23:52:06+0000,-35.31,-43.92,-31.60,-33.52,-47.84,-52.50
2022/12/06 23:52:58+0000,-34.33,-42.64,-32.39,-34.17,-48.33,-52.93
2022/12/06 23:53:50+0000,-34.61,-43.27,-32.32,-33.76,-11.62,-52.42
2022/12/06 23:54:42+0000,-34.53,-41.70,-31.99,-32.96,-48.91,-52.73
2022/12/06 23:55:34+0000,-34.44,-42.60,-32.16,-33.36,-47.98,-52.70
2022/12/06 23:56:26+0000,-34.81,-42.70,-32.36,-32.94,-48.93,-52.61
2022/12/06 23:57:18+0000,-35.27,-42.33,-31.95,-33.05,-11.90,-52.85
2022/12/06 23:58:10+0000,-35.15,-42.65,-31.49,-32.76,-47.69,-53.72
2022/12/06 23:59:02+0000,-34.96,-42.80,-32.01,-32.76,-47.62,-53.74
2022/12/06 23:59:54+0000,-35.26,-42.76,-31.72,-33.25,-12.51,-53.66
2022/12/07 00:00:50+0000,-34.50,-41.57,-32.36,-32.97,-48.55,-53.36
2022/12/07 00:01:50+0000,-35.84,-43.18,-31.89,-33.37,-48.26,-53.65
2022/12/07 00:02:42+0000,-34.50,-42.82,-31.80,-33.62,-48.75,-53.79
2022/12/07 00:03:34+0000,-34.92,-42.67,-32.25,-34.13,-47.87,-53.62
2022/12/07 00:04:26+0000,-34.16,-42.59,-31.83,-33.45,-47.63,-53.41
2022/12/07 00:05:18+0000,-35.01,-42.08,-31.89,-32.96,-48.39,-53.57
2022/12/07 00:06:10+0000,-34.92,-42.92,-31.73,-33.77,-48.60,-53.55
2022/12/07 00:07:02+0000,-35.56,-42.51,-31.87,-33.81,-48.45,-53.27
2022/12/07 00:07:54+0000,-34.88,-41.92,-32.35,-33.84,-47.93,-53.37
2022/12/07 00:08:46+0000,-35.50,-41.85,-31.61,-33.80,-48.58,-53.50
2022/12/07 00:09:39+0000,-35.07,-42.36,-31.95,-32.70,-48.65,-53.20
2022/12/07 00:10:31+0000,-34.96,-42.68,-31.64,-33.46,-48.44,-53.29
2022/12/07 00:11:30+0000,-35.22,-42.10,-31.93,-33.04,-48.03,-53.99
2022/12/07 00:12:22+0000,-35.00,-42.52,-31.59,-33.08,-48.07,-53.52
2022/12/07 00:13:14+0000,-34.81,-42.54,-31.72,-33.23,-47.62,-53.75
2022/12/07 00:14:06+0000,-35.44,-42.34,-32.23,-34.06,-48.08,-53.92
2022/12/07 00:14:58+0000,-34.95,-41.91,-32.19,-33.46,-48.09,-53.43
2022/12/07 00:15:50+0000,-34.30,-42.11,-31.97,-34.14,-48.32,-53.48
2022/12/07 00:16:42+0000,-34.74,-42.62,-32.32,-33.17,-47.95,-53.46
2022/12/07 00:17:34+0000,-35.26,-41.62,-32.38,-33.11,-48.55,-53.45
2022/12/07 00:18:26+0000,-34.71,-42.11,-32.13,-34.10,-48.51,-53.28
2022/12/07 00:19:18+0000,-35.61,-43.19,-32.13,-33.31,-47.94,-53.62
2022/12/07 00:20:10+0000,-34.88,-43.42,-32.18,-33.69,-47.84,-53.41
2022/12/07 00:21:09+0000,-34.53,-42.88,-31.91,-33.32,-48.76,-52.94
2022/12/07 00:22:01+0000,-35.00,-42.10,-31.39,-33.85,-48.43,-53.22
2022/12/07 00:22:53+0000,-33.57,-42.89,-31.67,-33.36,-49.08,-53.99
2022/12/07 00:23:45+0000,-35.20,-42.32,-32.19,-33.73,-48.32,-52.39
2022/12/07 00:24:37+0000,-35.23,-42.98,-31.45,-33.65,-48.65,-52.93
2022/12/07 00:25:29+0000,-34.88,-42.35,-31.59,-33.06,-48.81,-53.28
2022/12/07 00:26:21+0000,-35.30,-42.90,-31.91,-33.86,-48.33,-53.06
2022/12/07 00:27:13+0000,-35.49,-42.67,-32.09,-33.04,-48.93,-53.09
2022/12/07 00:28:06+0000,-35.28,-43.33,-31.76,-34.11,-48.63,-53.41
2022/12/07 00:28:58+0000,-34.78,-43.43,-31.61,-33.89,-48.62,-53.43
2022/12/07 00:29:50+0000,-34.74,-43.27,-31.03,-33.92,-49.16,-52.70
2022/12/07 00:30:42+0000,-34.46,-43.39,-32.04,-33.22,-49.26,-52.73
2022/12/07 00:31:41+0000,-34.40,-42.72,-31.73,-33.77,-48.59,-52.82
2022/12/07 00:32:33+0000,-34.92,-42.87,-31.88,-33.70,-48.55,-52.83
2022/12/07 00:33:25+0000,-34.41,-43.07,-31.42,-33.13,-48.67,-52.98
2022/12/07 00:34:17+0000,-34.98,-42.61,-32.26,-34.06,-48.07,-52.48
2022/12/07 00:35:09+0000,-34.73,-42.65,-31.97,-33.45,-48.92,-52.51
2022/12/07 00:36:01+0000,-35.29,-41.80,-32.00,-33.85,-49.06,-51.87
2022/12/07 00:36:53+0000,-35.19,-42.30,-31.66,-33.79,-48.85,-52.27
2022/12/07 00:37:45+0000,-34.78,-42.10,-31.52,-33.78,-49.34,-52.85
2022/12/07 00:38:37+0000,-35.02,-42.30,-30.92,-34.68,-49.23,-54.62
2022/12/07 00:39:29+0000,-35.17,-43.03,-31.31,-34.11,-49.31,-54.72
2022/12/07 00:40:21+0000,-35.02,-42.05,-31.57,-33.50,-49.85,-54.81
2022/12/07 00:41:20+0000,-34.85,-42.37,-32.43,-33.45,-48.81,-53.88
2022/12/07 00:42:12+0000,-32.89,-42.49,-32.13,-33.74,-49.15,-53.38
2022/12/07 00:43:04+0000,-34.58,-42.50,-31.06,-34.04,-48.87,-53.67
2022/12/07 00:43:56+0000,-33.89,-43.13,-31.85,-34.28,-48.39,-54.27
2022/12/07 00:44:48+0000,-34.55,-42.79,-32.83,-34.39,-49.59,-54.20
2022/12/07 00:45:40+0000,-33.60,-42.72,-32.05,-34.83,-49.54,-53.83
2022/12/07 00:46:32+0000,-33.37,-43.47,-32.01,-34.42,-49.16,-53.73
2022/12/07 00:47:24+0000,-33.99,-42.89,-32.51,-35.20,-48.81,-54.03
2022/12/07 00:48:16+0000,-33.64,-42.75,-32.86,-33.79,-48.64,-53.28
2022/12/07 00:49:09+0000,-33.87,-43.32,-32.55,-33.61,-49.28,-53.59
2022/12/07 00:50:01+0000,-33.41,-43.61,-32.41,-34.34,-49.14,-53.46
2022/12/07 00:51:00+0000,-33.32,-42.83,-31.74,-33.88,-49.26,-53.56
2022/12/07 00:51:52+0000,-33.61,-43.15,-31.62,-33.57,-50.14,-53.53
2022/12/07 00:52:44+0000,-33.88,-41.97,-32.25,-33.43,-49.54,-53.10
2022/12/07 00:53:36+0000,-34.35,-43.53,-31.87,-33.57,-49.77,-52.84
2022/12/07 00:54:28+0000,-34.64,-42.94,-32.40,-33.81,-49.27,-53.25
2022/12/07 00:55:20+0000,-33.21,-41.55,-32.41,-33.83,-49.11,-53.72
2022/12/07 00:56:12+0000,-33.97,-40.62,-32.02,-33.50,-49.57,-52.63
2022/12/07 00:57:04+0000,-34.39,-43.66,-32.63,-35.27,-49.26,-52.98
2022/12/07 00:57:56+0000,-34.86,-44.28,-32.25,-33.50,-49.48,-53.15
2022/12/07 00:58:48+0000,-34.36,-42.04,-32.85,-34.21,-49.27,-53.03
2022/12/07 00:59:40+0000,-33.73,-43.07,-32.31,-33.61,-49.86,-52.78
2022/12/07 01:00:32+0000,-33.00,-45.31,-32.28,-34.42,-49.78,-52.94
2022/12/07 01:01:32+0000,-33.29,-45.83,-33.02,-34.64,-49.59,-53.14
2022/12/07 01:02:24+0000,-33.45,-45.72,-32.76,-34.24,-49.72,-53.49
2022/12/07 01:03:16+0000,-33.58,-44.47,-32.76,-33.91,-49.30,-54.08
2022/12/07 01:04:08+0000,-33.11,-43.98,-32.05,-34.12,-49.68,-52.80
2022/12/07 01:05:00+0000,-33.01,-44.14,-32.71,-33.10,-49.35,-53.59
2022/12/07 01:05:52+0000,-34.17,-45.01,-32.59,-33.14,-45.65,-53.24
2022/12/07 01:06:44+0000,-33.91,-43.24,-32.64,-33.32,-49.44,-52.42
2022/12/07 01:07:36+0000,-34.19,-45.80,-32.38,-34.04,-49.39,-52.98
2022/12/07 01:08:28+0000,-33.87,-45.68,-32.97,-33.35,-49.61,-52.32
2022/12/07 01:09:20+0000,-33.28,-45.32,-32.82,-34.79,-45.79,-53.01
2022/12/07 01:10:13+0000,-34.35,-44.58,-32.31,-33.82,-49.14,-53.48
2022/12/07 01:11:12+0000,-33.61,-44.28,-32.52,-33.03,-45.91,-53.39
2022/12/07 01:12:04+0000,-33.16,-46.78,-32.28,-33.55,-48.78,-53.39
2022/12/07 01:12:56+0000,-34.02,-45.77,-32.84,-34.15,-49.32,-51.44
2022/12/07 01:13:48+0000,-33.36,-45.59,-32.15,-33.37,-45.67,-52.85
2022/12/07 01:14:40+0000,-34.38,-44.98,-32.48,-33.56,-48.74,-52.36
2022/12/07 01:15:32+0000,-33.53,-45.26,-32.18,-33.11,-48.86,-51.97
2022/12/07 01:16:24+0000,-33.11,-45.36,-32.42,-33.48,-48.67,-52.67
2022/12/07 01:17:16+0000,-33.64,-45.06,-32.34,-33.38,-48.74,-52.12
2022/12/07 01:18:08+0000,-33.97,-44.73,-32.66,-33.95,-48.38,-53.13
2022/12/07 01:19:00+0000,-33.52,-45.82,-32.91,-33.69,-49.25,-52.41
2022/12/07 01:19:53+0000,-33.11,-44.99,-31.90,-33.63,-49.39,-52.60
2022/12/07 01:20:45+0000,-33.63,-45.46,-32.34,-34.59,-49.72,-52.80
2022/12/07 01:21:44+0000,-33.99,-45.80,-32.50,-34.21,-49.30,-52.47
2022/12/07 01:22:36+0000,-33.87,-46.20,-32.67,-33.84,-48.93,-52.64
2022/12/07 01:23:28+0000,-32.85,-44.80,-32.59,-33.85,-49.48,-52.72
2022/12/07 01:24:20+0000,-34.24,-46.35,-32.17,-34.55,-49.22,-52.41
2022/12/07 01:25:12+0000,-33.82,-42.12,-32.88,-34.47,-48.58,-51.98
2022/12/07 01:26:04+0000,-33.51,-44.55,-32.66,-33.69,-49.52,-52.60
2022/12/07 01:26:56+0000,-34.01,-44.77,-32.73,-33.89,-49.21,-52.53
2022/12/07 01:27:48+0000,-34.64,-43.96,-33.21,-34.06,-48.77,-52.89
2022/12/07 01:28:40+0000,-33.75,-44.45,-32.52,-34.03,-49.60,-52.72
2022/12/07 01:29:32+0000,-34.02,-37.74,-32.99,-33.96,-49.57,-52.66
2022/12/07 01:30:25+0000,-34.59,-36.85,-33.45,-33.81,-49.55,-52.35
2022/12/07 01:31:24+0000,-33.89,-36.54,-32.92,-34.30,-49.06,-52.42
2022/12/07 01:32:16+0000,-32.90,-35.57,-32.41,-33.84,-49.33,-52.09
2022/12/07 01:33:08+0000,-32.88,-35.93,-32.45,-33.50,-49.02,-52.62
2022/12/07 01:34:00+0000,-33.21,-34.92,-32.43,-34.42,-49.38,-52.65
2022/12/07 01:34:52+0000,-33.42,-35.55,-32.93,-34.27,-49.18,-51.21
2022/12/07 01:35:44+0000,-33.11,-35.61,-32.78,-35.48,-48.44,-51.41
2022/12/07 01:36:36+0000,-33.24,-35.68,-32.18,-34.23,-43.69,-52.57
2022/12/07 01:37:28+0000,-33.37,-45.19,-32.61,-33.79,-48.93,-53.92
2022/12/07 01:38:20+0000,-33.22,-44.57,-32.56,-34.44,-48.35,-54.04
2022/12/07 01:39:13+0000,-32.84,-44.39,-32.48,-34.03,-48.78,-53.53
2022/12/07 01:40:05+0000,-33.24,-45.15,-32.30,-34.32,-49.15,-54.04
2022/12/07 01:41:04+0000,-33.05,-46.18,-32.20,-34.09,-48.77,-54.04
2022/12/07 01:41:56+0000,-33.85,-43.59,-32.95,-33.88,-49.02,-54.31
2022/12/07 01:42:48+0000,-34.16,-45.16,-32.76,-35.00,-49.34,-54.37
2022/12/07 01:43:40+0000,-34.06,-45.06,-32.86,-34.19,-49.73,-53.61
2022/12/07 01:44:32+0000,-32.88,-43.42,-33.03,-34.25,-49.31,-53.59
2022/12/07 01:45:24+0000,-32.62,-43.62,-32.59,-34.35,-49.06,-53.65
2022/12/07 01:46:16+0000,-33.81,-44.92,-32.74,-33.42,-49.48,-53.90
2022/12/07 01:47:08+0000,-33.54,-44.21,-32.66,-33.96,-49.60,-54.57
2022/12/07 01:48:00+0000,-32.62,-43.35,-32.83,-33.81,-48.72,-53.75
2022/12/07 01:48:52+0000,-33.17,-46.28,-33.02,-34.00,-48.89,-54.24
2022/12/07 01:49:45+0000,-32.84,-45.22,-32.24,-34.22,-49.11,-54.18
2022/12/07 01:50:37+0000,-33.49,-45.10,-32.62,-34.41,-49.42,-54.26
2022/12/07 01:51:37+0000,-33.94,-45.46,-32.34,-33.66,-48.65,-53.94
2022/12/07 01:52:29+0000,-33.78,-45.72,-33.49,-34.16,-49.00,-54.09
2022/12/07 01:53:21+0000,-33.84,-45.72,-32.84,-34.10,-48.26,-54.36
2022/12/07 01:54:14+0000,-33.52,-45.08,-33.13,-35.13,-49.39,-54.26
2022/12/07 01:55:06+0000,-33.21,-45.28,-32.39,-33.77,-48.44,-54.59
2022/12/07 01:55:58+0000,-34.73,-45.86,-32.18,-34.48,-48.83,-53.89
2022/12/07 01:56:50+0000,-34.11,-44.78,-32.61,-33.41,-48.99,-54.27
2022/12/07 01:57:42+0000,-33.31,-45.07,-32.61,-34.97,-49.03,-53.23
2022/12/07 01:58:34+0000,-34.21,-44.79,-32.53,-33.67,-48.35,-54.14
2022/12/07 01:59:26+0000,-34.03,-45.19,-33.14,-33.66,-48.41,-53.66
2022/12/07 02:00:18+0000,-34.69,-43.20,-32.77,-34.49,-48.95,-54.16
2022/12/07 02:01:18+0000,-34.00,-43.79,-32.88,-33.82,-49.19,-53.32
2022/12/07 02:02:10+0000,-33.32,-43.68,-32.53,-34.90,-48.44,-52.98
2022/12/07 02:03:02+0000,-33.82,-44.84,-32.89,-33.75,-48.20,-53.29
2022/12/07 02:03:54+0000,-33.61,-44.91,-32.84,-34.40,-48.60,-53.76
2022/12/07 02:04:46+0000,-32.74,-42.45,-32.93,-34.00,-48.35,-53.54
2022/12/07 02:05:38+0000,-33.67,-42.91,-32.80,-33.80,-49.15,-53.44
2022/12/07 02:06:30+0000,-33.28,-44.17,-32.33,-34.14,-48.90,-53.52
2022/12/07 02:07:22+0000,-33.06,-45.70,-32.59,-34.37,-48.74,-53.39
2022/12/07 02:08:14+0000,-34.64,-42.61,-32.87,-33.72,-48.44,-52.91
2022/12/07 02:09:07+0000,-34.22,-44.81,-32.53,-33.83,-48.56,-53.05
2022/12/07 02:09:59+0000,-34.07,-45.29,-32.87,-33.29,-48.45,-53.10
2022/12/07 02:10:51+0000,-34.67,-46.23,-31.97,-34.42,-48.18,-53.23
2022/12/07 02:11:50+0000,-33.83,-45.16,-32.05,-35.10,-48.53,-51.93
2022/12/07 02:12:42+0000,-34.11,-43.21,-33.08,-33.18,-48.67,-52.99
2022/12/07 02:13:34+0000,-32.94,-44.55,-32.96,-34.29,-49.05,-52.47
2022/12/07 02:14:26+0000,-33.56,-45.35,-32.88,-33.87,-48.73,-52.62
2022/12/07 02:15:18+0000,-33.07,-42.04,-32.71,-33.82,-48.43,-53.06
2022/12/07 02:16:10+0000,-34.05,-42.42,-32.92,-33.84,-48.90,-52.35
2022/12/07 02:17:02+0000,-33.00,-44.47,-33.29,-33.83,-48.76,-52.85
2022/12/07 02:17:54+0000,-33.80,-44.66,-32.34,-34.46,-48.47,-52.77
2022/12/07 02:18:46+0000,-33.50,-44.46,-32.77,-34.23,-48.76,-52.75
2022/12/07 02:19:38+0000,-31.74,-44.26,-32.14,-34.39,-48.93,-53.20
2022/12/07 02:20:31+0000,-33.41,-45.47,-32.63,-34.22,-48.23,-52.97
2022/12/07 02:21:31+0000,-34.28,-45.15,-32.69,-33.34,-48.34,-52.11
2022/12/07 02:22:23+0000,-31.82,-44.58,-32.84,-34.51,-47.99,-52.55
2022/12/07 02:23:15+0000,-33.95,-43.64,-32.90,-34.59,-48.70,-52.44
2022/12/07 02:24:07+0000,-32.59,-45.80,-32.73,-34.32,-48.10,-52.92
2022/12/07 02:24:59+0000,-33.86,-44.05,-33.18,-33.69,-48.88,-52.29
2022/12/07 02:25:51+0000,-33.69,-46.16,-32.44,-34.07,-48.84,-52.52
2022/12/07 02:26:43+0000,-33.00,-42.91,-32.68,-33.92,-48.68,-52.90
2022/12/07 02:27:35+0000,-32.93,-45.14,-32.90,-34.41,-47.84,-53.16
2022/12/07 02:28:27+0000,-32.61,-45.46,-33.06,-34.38,-48.50,-53.01
2022/12/07 02:29:19+0000,-33.73,-42.66,-32.61,-33.98,-49.12,-52.94
2022/12/07 02:30:11+0000,-30.44,-43.37,-32.50,-34.69,-48.69,-52.77
2022/12/07 02:31:10+0000,-33.29,-43.05,-32.58,-33.57,-48.46,-52.14
2022/12/07 02:32:02+0000,-30.58,-45.36,-32.93,-33.41,-48.24,-52.80
2022/12/07 02:32:54+0000,-32.82,-45.00,-32.65,-33.70,-49.05,-52.57
2022/12/07 02:33:46+0000,-32.93,-43.15,-32.65,-34.37,-49.16,-52.73
2022/12/07 02:34:38+0000,-30.44,-42.96,-33.35,-33.91,-48.49,-52.62
2022/12/07 02:35:30+0000,-31.90,-45.34,-32.85,-33.62,-48.64,-52.40
2022/12/07 02:36:22+0000,-32.30,-45.52,-32.98,-34.74,-48.34,-53.04
2022/12/07 02:37:14+0000,-31.98,-45.39,-32.81,-34.45,-49.06,-52.82
2022/12/07 02:38:06+0000,-33.79,-46.29,-32.93,-34.32,-47.63,-52.77
2022/12/07 02:38:58+0000,-33.17,-45.81,-32.10,-34.93,-49.19,-52.41
2022/12/07 02:39:50+0000,-32.93,-46.68,-32.47,-34.86,-48.28,-52.65
2022/12/07 02:40:42+0000,-31.96,-44.15,-32.30,-33.94,-48.63,-53.10
2022/12/07 02:41:41+0000,-32.62,-45.24,-31.83,-34.07,-49.08,-52.72
2022/12/07 02:42:33+0000,-33.75,-44.89,-32.39,-34.10,-48.84,-52.74
2022/12/07 02:43:25+0000,-33.09,-45.99,-32.56,-34.81,-48.93,-53.00
2022/12/07 02:44:17+0000,-33.27,-44.13,-33.02,-33.87,-47.76,-52.07
2022/12/07 02:45:09+0000,-33.57,-44.23,-32.71,-34.53,-48.81,-52.54
2022/12/07 02:46:01+0000,-33.42,-44.99,-32.39,-34.79,-48.38,-53.03
2022/12/07 02:46:53+0000,-33.19,-45.62,-32.15,-34.07,-48.66,-52.81
2022/12/07 02:47:45+0000,-33.80,-44.91,-32.94,-34.10,-48.79,-52.92
2022/12/07 02:48:37+0000,-33.98,-45.51,-32.50,-34.93,-48.59,-51.50
2022/12/07 02:49:30+0000,-33.70,-44.98,-32.01,-34.10,-48.40,-52.60
2022/12/07 02:50:22+0000,-33.83,-45.82,-32.03,-34.19,-48.30,-52.02
2022/12/07 02:51:21+0000,-32.95,-45.07,-32.28,-33.25,-48.74,-53.44
2022/12/07 02:52:13+0000,-33.09,-43.31,-31.96,-34.05,-48.65,-53.66
2022/12/07 02:53:05+0000,-34.52,-45.17,-32.89,-34.39,-48.97,-53.29
2022/12/07 02:53:57+0000,-33.57,-44.93,-32.67,-33.23,-48.43,-52.58
2022/12/07 02:54:49+0000,-33.16,-44.81,-32.25,-34.43,-49.01,-53.35
2022/12/07 02:55:41+0000,-34.06,-44.49,-32.56,-34.20,-49.31,-53.37
2022/12/07 02:56:33+0000,-33.53,-44.52,-32.14,-34.11,-49.69,-54.43
2022/12/07 02:57:25+0000,-33.05,-44.03,-32.47,-33.75,-49.33,-53.32
2022/12/07 02:58:17+0000,-33.63,-43.72,-32.37,-33.77,-48.69,-53.91
2022/12/07 02:59:09+0000,-33.70,-44.27,-32.53,-33.60,-48.56,-53.48
2022/12/07 03:00:01+0000,-33.78,-45.36,-32.68,-34.64,-48.90,-53.80
2022/12/07 03:01:03+0000,-32.21,-45.35,-32.41,-33.97,-48.47,-54.08
2022/12/07 03:01:55+0000,-32.54,-44.79,-32.59,-33.68,-48.89,-54.05
2022/12/07 03:02:47+0000,-33.22,-44.19,-32.39,-33.51,-48.05,-53.22
2022/12/07 03:03:39+0000,-33.24,-44.80,-32.87,-34.04,-48.34,-53.28
2022/12/07 03:04:31+0000,-33.51,-44.79,-32.44,-34.20,-48.01,-53.72
2022/12/07 03:05:23+0000,-33.83,-44.48,-32.62,-34.03,-49.21,-53.74
2022/12/07 03:06:15+0000,-33.49,-43.87,-32.60,-33.36,-49.23,-54.20
2022/12/07 03:07:07+0000,-30.88,-44.96,-32.32,-34.14,-48.50,-53.42
2022/12/07 03:07:59+0000,-32.78,-44.53,-32.70,-34.46,-48.69,-53.53
2022/12/07 03:08:51+0000,-34.14,-45.78,-32.27,-34.00,-48.79,-53.57
2022/12/07 03:09:43+0000,-34.29,-44.42,-32.94,-34.68,-48.18,-54.27
2022/12/07 03:10:35+0000,-33.48,-45.07,-32.41,-33.83,-49.02,-53.92
2022/12/07 03:11:34+0000,-33.63,-43.64,-32.21,-34.91,-48.57,-53.65
2022/12/07 03:12:26+0000,-33.16,-45.15,-32.95,-34.69,-48.20,-53.56
2022/12/07 03:13:18+0000,-33.61,-44.28,-32.55,-34.29,-48.08,-53.26
2022/12/07 03:14:10+0000,-33.42,-45.40,-32.31,-34.45,-48.71,-53.53
2022/12/07 03:15:02+0000,-32.76,-44.94,-33.36,-35.00,-48.22,-53.82
2022/12/07 03:15:55+0000,-32.90,-44.39,-32.59,-33.81,-49.25,-53.49
2022/12/07 03:16:47+0000,-33.28,-44.91,-31.74,-34.73,-48.68,-53.30
2022/12/07 03:17:39+0000,-33.54,-44.66,-31.88,-34.31,-48.67,-53.51
2022/12/07 03:18:31+0000,-34.96,-44.58,-32.23,-33.51,-49.39,-53.81
2022/12/07 03:19:23+0000,-33.51,-45.34,-31.99,-33.97,-49.65,-53.93
2022/12/07 03:20:15+0000,-33.84,-44.67,-31.75,-34.69,-48.90,-53.71
2022/12/07 03:21:14+0000,-35.14,-43.66,-31.15,-33.48,-49.44,-53.65
2022/12/07 03:22:06+0000,-33.17,-45.48,-31.83,-33.67,-49.59,-53.63
2022/12/07 03:22:58+0000,-33.69,-44.86,-31.94,-34.27,-49.25,-53.31
2022/12/07 03:23:50+0000,-34.13,-45.18,-32.58,-34.55,-48.68,-53.41
2022/12/07 03:24:42+0000,-33.16,-42.79,-31.67,-33.59,-47.65,-53.53
2022/12/07 03:25:34+0000,-33.47,-43.80,-32.13,-34.09,-48.42,-52.11
2022/12/07 03:26:26+0000,-33.44,-41.86,-32.17,-33.85,-48.08,-53.75
2022/12/07 03:27:18+0000,-33.56,-43.82,-32.13,-34.20,-48.65,-53.17
2022/12/07 03:28:11+0000,-33.11,-43.79,-32.40,-34.05,-48.88,-53.77
2022/12/07 03:29:03+0000,-33.78,-43.71,-32.04,-33.66,-48.28,-52.65
2022/12/07 03:29:55+0000,-33.95,-43.14,-31.93,-33.87,-49.14,-53.91
2022/12/07 03:30:47+0000,-33.97,-42.79,-32.00,-34.20,-49.18,-53.18
2022/12/07 03:31:46+0000,-33.28,-43.91,-32.04,-34.52,-49.19,-53.30
2022/12/07 03:32:38+0000,-33.70,-42.99,-32.06,-34.00,-49.24,-52.94
2022/12/07 03:33:30+0000,-33.46,-44.87,-32.04,-33.72,-48.77,-53.24
2022/12/07 03:34:22+0000,-33.86,-46.26,-31.80,-34.31,-48.84,-53.73
2022/12/07 03:35:14+0000,-34.12,-44.85,-32.04,-33.61,-48.66,-54.24
2022/12/07 03:36:06+0000,-32.53,-46.05,-32.17,-34.84,-48.62,-53.86
2022/12/07 03:36:58+0000,-33.82,-43.64,-31.99,-33.66,-49.21,-54.13
2022/12/07 03:37:50+0000,-33.94,-44.74,-32.10,-34.38,-48.02,-53.61
2022/12/07 03:38:42+0000,-34.19,-43.80,-32.00,-34.76,-49.07,-53.59
2022/12/07 03:39:34+0000,-33.81,-43.44,-31.77,-33.64,-48.43,-53.28
2022/12/07 03:40:26+0000,-34.20,-41.82,-31.98,-34.19,-48.65,-53.70
2022/12/07 03:41:26+0000,-33.45,-42.17,-32.17,-34.15,-49.23,-53.26
2022/12/07 03:42:18+0000,-33.65,-43.97,-31.83,-33.88,-48.28,-54.39
2022/12/07 03:43:10+0000,-33.26,-43.83,-31.95,-34.45,-48.80,-54.60
2022/12/07 03:44:02+0000,-31.87,-42.58,-32.60,-33.59,-49.00,-54.33
2022/12/07 03:44:54+0000,-33.59,-42.62,-31.45,-33.33,-49.09,-53.73
2022/12/07 03:45:46+0000,-33.86,-45.19,-31.93,-33.83,-49.60,-53.04
2022/12/07 03:46:38+0000,-33.10,-45.53,-31.67,-33.60,-48.52,-53.51
2022/12/07 03:47:30+0000,-33.59,-41.43,-32.11,-34.22,-49.47,-54.00
2022/12/07 03:48:22+0000,-33.59,-45.14,-31.80,-33.95,-49.10,-53.82
2022/12/07 03:49:14+0000,-33.09,-46.02,-31.84,-33.73,-49.21,-53.55
2022/12/07 03:50:06+0000,-33.63,-45.38,-31.88,-34.84,-48.86,-53.79
2022/12/07 03:51:06+0000,-33.37,-44.53,-31.74,-34.62,-49.67,-53.56
2022/12/07 03:51:58+0000,-33.28,-44.56,-32.14,-34.36,-48.82,-53.73
2022/12/07 03:52:50+0000,-33.97,-45.21,-32.45,-33.86,-48.30,-52.87
2022/12/07 03:53:42+0000,-33.26,-44.53,-31.60,-33.96,-49.43,-53.74
2022/12/07 03:54:34+0000,-32.64,-44.22,-31.86,-34.12,-49.40,-53.82
2022/12/07 03:55:26+0000,-33.76,-44.77,-31.69,-33.50,-49.24,-53.97
2022/12/07 03:56:18+0000,-32.94,-43.10,-32.09,-34.93,-49.51,-53.45
2022/12/07 03:57:10+0000,-33.56,-43.65,-31.97,-33.37,-48.90,-53.66
2022/12/07 03:58:02+0000,-33.69,-44.34,-32.21,-33.84,-48.90,-53.52
2022/12/07 03:58:54+0000,-33.23,-43.83,-32.09,-33.98,-48.56,-53.99
2022/12/07 03:59:46+0000,-34.14,-44.80,-31.55,-34.88,-48.91,-53.71
2022/12/07 04:00:38+0000,-33.20,-45.31,-31.85,-33.68,-49.09,-53.68
2022/12/07 04:01:38+0000,-33.50,-43.45,-32.32,-33.69,-48.65,-53.35
2022/12/07 04:02:30+0000,-34.27,-45.33,-32.26,-34.63,-49.16,-53.48
2022/12/07 04:03:22+0000,-34.56,-45.26,-31.52,-35.57,-49.16,-53.86
2022/12/07 04:04:14+0000,-34.47,-43.66,-31.71,-33.72,-48.65,-53.81
2022/12/07 04:05:06+0000,-33.37,-45.04,-32.40,-33.61,-49.01,-53.61
2022/12/07 04:05:58+0000,-33.66,-44.58,-32.43,-35.01,-48.46,-53.97
2022/12/07 04:06:50+0000,-33.82,-45.45,-31.85,-34.52,-48.77,-53.92
2022/12/07 04:07:42+0000,-34.59,-44.47,-31.92,-33.69,-49.47,-53.69
2022/12/07 04:08:34+0000,-33.05,-45.41,-32.56,-34.30,-48.68,-53.64
2022/12/07 04:09:26+0000,-34.13,-45.33,-31.90,-34.09,-48.86,-54.20
2022/12/07 04:10:19+0000,-34.25,-42.97,-31.67,-34.35,-48.33,-52.89
2022/12/07 04:11:19+0000,-33.82,-45.62,-32.02,-34.77,-48.94,-52.95
2022/12/07 04:12:11+0000,-33.02,-44.42,-31.74,-33.81,-48.02,-52.39
2022/12/07 04:13:03+0000,-34.06,-44.29,-32.15,-34.46,-48.19,-52.68
2022/12/07 04:13:56+0000,-34.06,-44.25,-32.12,-34.26,-48.69,-52.98
2022/12/07 04:14:48+0000,-33.02,-46.10,-32.38,-34.32,-48.88,-52.76
2022/12/07 04:15:40+0000,-33.50,-45.87,-31.97,-34.70,-48.17,-52.83
2022/12/07 04:16:32+0000,-33.48,-45.44,-32.42,-33.82,-48.43,-53.04
2022/12/07 04:17:24+0000,-33.85,-45.55,-32.03,-34.77,-48.77,-53.93
2022/12/07 04:18:16+0000,-33.70,-45.57,-32.47,-34.80,-48.94,-53.08
2022/12/07 04:19:08+0000,-32.99,-45.52,-31.30,-34.34,-48.86,-53.26
2022/12/07 04:20:00+0000,-34.03,-44.82,-32.50,-34.19,-47.94,-53.31
2022/12/07 04:21:00+0000,-33.49,-44.28,-32.23,-34.30,-49.12,-52.80
2022/12/07 04:21:52+0000,-33.12,-45.64,-31.89,-34.84,-48.98,-53.51
2022/12/07 04:22:44+0000,-33.84,-45.02,-31.93,-34.10,-48.62,-52.38
2022/12/07 04:23:36+0000,-33.44,-45.67,-32.14,-34.03,-48.50,-53.19
2022/12/07 04:24:28+0000,-33.96,-44.54,-31.98,-33.67,-49.10,-53.50
2022/12/07 04:25:20+0000,-33.43,-44.76,-32.05,-34.26,-49.13,-53.24
2022/12/07 04:26:12+0000,-32.50,-45.28,-31.51,-34.30,-48.64,-53.31
2022/12/07 04:27:04+0000,-33.26,-44.66,-32.42,-33.81,-48.64,-53.31
2022/12/07 04:27:56+0000,-34.21,-45.25,-31.87,-35.11,-49.11,-53.27
2022/12/07 04:28:48+0000,-33.14,-45.86,-32.16,-33.74,-48.84,-52.90
2022/12/07 04:29:40+0000,-32.15,-45.37,-32.02,-33.30,-48.49,-52.47
2022/12/07 04:30:32+0000,-32.26,-45.97,-32.26,-34.36,-48.39,-52.67
2022/12/07 04:31:32+0000,-33.48,-45.26,-32.17,-34.35,-49.32,-53.01
2022/12/07 04:32:24+0000,-34.02,-45.62,-31.90,-34.09,-48.80,-52.53
2022/12/07 04:33:16+0000,-34.04,-45.58,-31.99,-34.19,-48.79,-53.08
2022/12/07 04:34:08+0000,-33.55,-45.63,-31.66,-34.55,-49.25,-52.88
2022/12/07 04:35:00+0000,-34.08,-44.76,-31.86,-34.36,-48.46,-52.64
2022/12/07 04:35:52+0000,-33.42,-45.13,-32.49,-34.15,-48.00,-53.00
2022/12/07 04:36:44+0000,-33.28,-45.52,-31.68,-34.35,-48.51,-52.16
2022/12/07 04:37:36+0000,-34.51,-45.69,-32.53,-34.74,-48.44,-53.03
2022/12/07 04:38:28+0000,-34.15,-45.08,-32.05,-34.11,-48.17,-53.53
2022/12/07 04:39:20+0000,-33.62,-45.38,-32.10,-33.42,-47.93,-52.47
2022/12/07 04:40:12+0000,-33.41,-45.25,-32.80,-34.29,-48.63,-52.99
2022/12/07 04:41:11+0000,-33.27,-46.04,-32.01,-35.72,-49.09,-53.58
2022/12/07 04:42:03+0000,-32.89,-45.51,-32.18,-33.96,-48.37,-53.33
2022/12/07 04:42:56+0000,-33.02,-44.69,-33.07,-33.99,-48.34,-52.89
2022/12/07 04:43:48+0000,-33.00,-44.90,-32.17,-34.49,-48.83,-53.21
2022/12/07 04:44:40+0000,-34.03,-45.32,-31.99,-33.98,-49.34,-51.91
2022/12/07 04:45:32+0000,-33.96,-45.39,-31.52,-34.69,-48.51,-53.53